Weather in Daryevka

Russia / Penza Oblast     53°51′59″N   45°19′30″E
temp.,
°C
wind,
m/s
gust,
m/s
humid.,
%
clouds,
%
prec.,
mm/h
press.,
hPa
HPBL,
m
24 october, sun
sun2400:00+7sw48865 3.1 1011482
03:00+4wsw39815 3.1 1012278
06:00+3wsw49865 0.0 1013296
09:00+4wsw59795 0.0 1014551
12:00+7wsw686381 0.0 10141192
15:00+7wsw6961100 0.0 10141470
18:00+5wsw4875100 0.1 1014672
21:00+3w5109599 0.6 1015720
25 october, mon
mon2500:00+3wnw5994100 0.3 1015754
03:00+2nw6994100 0.5 1016750
06:000nw7129085 0.2 1019816
09:00+1nnw8118099 0.3 1022939
12:00+1nnw7965100 0.0 10241095
15:00+3nnw68545 0.0 10251221
18:000nw3767100 0.0 1028246
21:00−1nw237461 0.0 102965
26 october, tue
tue2600:00−1w237458 0.0 102953
03:00−1sw38755 0.0 1029218
06:00−1sw5117364 0.0 1028332
09:00+1wsw613645 0.0 1027488
12:00+5wsw710535 0.0 1026743
15:00+5wsw6115650 0.0 1025752
18:00+3wsw5136599 0.0 1025415
21:00+2wsw5126852 0.0 1025330
27 october, wed
wed2700:00+1sw5117097 0.0 1025291
03:00+1sw5127096 0.0 1025282
06:000sw5127238 0.0 1025273
09:00+3sw613605 0.0 1025405
12:00+7wsw711455 0.0 1024612
15:00+7sw713450 0.0 1022681
18:00+5sw614490 0.0 1022458
21:00+4sw6154928 0.0 1021432
28 october, thu
thu2800:00+3sw61449100 0.0 1021409
03:00+2sw51352100 0.0 1020343
06:00+2sw51254100 0.0 1020372
09:00+3wsw41059100 0.0 1021511
12:00+4wsw4776100 0.0 1021347
15:00+6w477128 0.0 1021646
18:00+5wsw2469100 0.0 1023107
21:00+6wnw3562100 0.0 1023110